Hourly Data Report for September 15, 2017

All times are specified in Local Standard Time (LST). Add 1 hour to adjust for Daylight Saving Time where and when it is observed.

POINT LEPREAU CS
NEW BRUNSWICK

45°04'23.040" N
66°26'57.090" W
6.00 m
8104201
71699
WPE

Download Data

Hourly Data (September 2017)
Hourly Data Report for September 15, 2017
Temp Definition
°C
Dew Point Temp Definition
°C
Rel Hum Definition
%
Wind Dir Definition
10's deg

Wind Spd Definition
km/h
Visibility Definition
km
Stn Press Definition
kPa
Hmdx Definition


Wind Chill Definition


Weather Definition


TIME
00:00 13.4 LegendMM 100 27 3   101.28     LegendNANA
01:00 13.6 LegendMM 100 28 4   101.29     LegendNANA
02:00 13.2 LegendMM 100 23 4   101.34     LegendNANA
03:00 13.0 LegendMM 100 15 4   101.38     LegendNANA
04:00 12.9 LegendMM 100 6 6   101.43     LegendNANA
05:00 13.1 LegendMM 100 10 3   101.51     LegendNANA
06:00 12.6 LegendMM 100 4 7   101.60     LegendNANA
07:00 13.1 LegendMM 100 7 4   101.67     LegendNANA
08:00 13.5 LegendMM 100 9 8   101.73     LegendNANA
09:00 13.4 LegendMM 100 9 11   101.81     LegendNANA
10:00 14.2 LegendMM 100 9 10   101.90     LegendNANA
11:00 14.4 LegendMM 100 9 11   101.91     LegendNANA
12:00 16.2 15.7 97 5 14   101.92     LegendNANA
13:00 16.9 15.2 90 10 17   101.90     LegendNANA
14:00 16.8 14.7 87 10 14   101.89     LegendNANA
15:00 16.8 14.9 89 10 13   101.86     LegendNANA
16:00 17.0 15.3 90 10 10   101.89     LegendNANA
17:00 15.3 14.3 94 10 6   101.93     LegendNANA
18:00 15.1 14.6 96 0 1   101.91     LegendNANA
19:00 14.7 14.5 99 0 1   101.95     LegendNANA
20:00 14.3 LegendMM 100 13 4   101.96     LegendNANA
21:00 15.0 LegendMM 100 0 1   101.95     LegendNANA
22:00 15.2 LegendMM 100 34 3   102.00     LegendNANA
23:00 14.6 LegendMM 100 15 2   101.97     LegendNANA

Notes on Data Quality.

Legend

  • E = Estimated
  • M = Missing
  • NA = Not Available
  • ‡ = Partner data that is not subject to review by the National Climate Archives
Date modified: